This demonstration page uses our WeatherBlox Daily Observations layout. Learn more.

Left ArrowRight Arrow

39.92423, -83.80882

Hourly Observations for May 5, 2018

Temp ( °F °C ) Dew Point ( °F °C ) Humidity (%) Winds ( mph kmh ) Pressure ( in mb ) Visibility ( mi km ) Precip ( " mm )
12:56 am 00:56 Clear 55 12.8 51 10.6 87 87 Calm 30.09 1019 10 16.0934 0.01 0.254
1:56 am 01:56 Clear 52 11.1 50 10 93 93 Calm 30.08 1019 10 16.0934 0 0
2:56 am 02:56 Clear 51 10.6 50 10 96 96 SE 3 6 30.08 1019 10 16.0934 0.01 0.254
3:56 am 03:56 Clear 50 10 49 9.4 96 96 SSE 5 7 30.08 1019 10 16.0934 0 0
4:56 am 04:56 Clear 51 10.6 50 10 96 96 ENE 3 6 30.09 1019 10 16.0934 0 0
5:56 am 05:56 Clear 50 10 49 9.4 96 96 Calm 30.09 1019 10 16.0934 0 0
6:56 am 06:56 Sunny 51 10.6 49 9.4 92 92 SE 3 6 30.11 1020 10 16.0934 0.01 0.254
7:56 am 07:56 Sunny 55 12.8 53 11.7 93 93 E 3 6 30.11 1020 10 16.0934 0 0
8:56 am 08:56 Sunny 58 14.4 53 11.7 84 84 ESE 6 9 30.11 1020 10 16.0934 0 0
9:56 am 09:56 Sunny 62 16.7 53 11.7 73 73 E 8 13 30.1 1019 10 16.0934 0 0
10:56 am 10:56 Sunny 63 17.2 53 11.7 70 70 SE 10 17 30.1 1019 10 16.0934 0 0
11:56 am 11:56 Sunny 65 18.3 54 12.2 68 68 SE 9 15 30.09 1019 10 16.0934 0.01 0.254
12:56 pm 12:56 Sunny 65 18.3 52 11.1 63 63 SSE 8 13 30.08 1019 10 16.0934 0 0
1:56 pm 13:56 Sunny 65 18.3 52 11.1 63 63 SSE 6 9 30.07 1018 10 16.0934 0 0
2:56 pm 14:56 Sunny 65 18.3 53 11.7 66 66 SE 6 9 30.05 1018 10 16.0934 0 0
3:56 pm 15:56 Sunny 66 18.9 53 11.7 63 63 SE 5 7 30.05 1018 10 16.0934 0 0
4:56 pm 16:56 Sunny 65 18.3 54 12.2 68 68 S 6 9 30.04 1017 10 16.0934 0.01 0.254
6:56 pm 18:56 Sunny 63 17.2 56 13.3 78 78 SSE 8 13 30.04 1017 10 16.0934 0 0
7:56 pm 19:56 Sunny 61 16.1 55 12.8 81 81 ESE 6 9 30.01 1016 10 16.0934 0 0
8:56 pm 20:56 Clear 59 15 55 12.8 87 87 SSE 6 9 30.02 1017 10 16.0934 0 0
9:56 pm 21:56 Clear 58 14.4 54 12.2 87 87 SE 8 13 30.01 1016 10 16.0934 0 0
10:56 pm 22:56 Clear 58 14.4 53 11.7 84 84 S 5 7 30.03 1017 10 16.0934 0 0
11:56 pm 23:56 Clear 56 13.3 52 11.1 87 87 Calm 30.02 1017 10 16.0934 0.01 0.254

Powered by AerisWeather